Location: Finnegan
(51.1333°N, 112.0833°W)
Time: 11:34:51
(UTC+00:00)

N. Korean satellite - Pass Details

Date: 04 December 2021
Orbit: 447 x 490 km, 97.3° (Epoch: 27 January)

Event Time Altitude Azimuth Distance (km) Brightness Sun altitude
Rises 12:38:20 0° 16° (NNE) 2,474 10.3 -23.4°
Reaches altitude 10° 12:40:25 10° 21° (NNE) 1,592 9.3 -23.1°
Maximum altitude 12:43:46 56° 101° (E) 542 7.0 -22.6°
Drops below altitude 10° 12:47:05 10° 180° (S) 1,572 9.2 -22.0°
Sets 12:49:07 0° 185° (S) 2,439 10.2 -21.7°
